Weather History for Conroe, TX

Change the Weather History Date:

Sunday, January 27, 2013

  Actual Average Record
Temperature  
Mean Temperature 66 °F -  
Max Temperature 77 °F 59 °F 80 °F (2009)
Min Temperature 55 °F 40 °F 28 °F (2004)
Cooling Degree Days 1    
Growing Degree Days 16 (Base 50)    
Moisture  
Dew Point 62 °F    
Average Humidity 91    
Maximum Humidity 100    
Minimum Humidity 62    
Precipitation  
Precipitation 0.14 in - - ()
Sea Level Pressure  
Sea Level Pressure 30.10 in    
Wind  
Wind Speed 6 mph (SE)    
Max Wind Speed 16 mph    
Max Gust Speed 24 mph    
Visibility 7 miles    
Events Fog , Rain    
Averages and records for this station are not official NWS values.
T = Trace of Precipitation, MM = Missing Value Source: NWS Daily Summary

Daily Weather History Graph

Daily Weather History Graph

Search for Another Location

Airport:

Trip Planner

Search our weather history database for the weather conditions in past years. The results will help you decide how hot, cold, wet, or windy it might be!

Date:

Astronomy

Jan. 27, 2013 Rise Set
Actual Time 7:15 AM CST 5:54 PM CST
Civil Twilight 6:49 AM CST 6:19 PM CST
Nautical Twilight 6:20 AM CST 6:48 PM CST
Astronomical Twilight 5:52 AM CST 7:17 PM CST
Moon 6:41 PM CST (1/27) 7:14 AM CST (1/27)
Length of Visible Light 11h 29m
Length of Day
10h 39m
Full, 100% of the Moon is Illuminated
Jan 27
Full
Feb 3
Last Quarter
Feb 10
New
Feb 17
First Quarter
Feb 25
Full

Hourly Weather History & Observations

Time (CST) Temp. Dew Point Humidity Pressure Visibility Wind Dir Wind Speed Gust Speed Precip Events Conditions
12:53 AM 57.9 °F 57.9 °F 100% 30.14 in 10.0 mi ESE 4.6 mph - N/A   Clear
1:53 AM 57.9 °F 57.9 °F 100% 30.14 in 7.0 mi SE 3.5 mph - N/A   Clear
2:53 AM 57.9 °F 57.0 °F 97% 30.12 in 8.0 mi Calm Calm - N/A   Clear
3:53 AM 57.0 °F 57.0 °F 100% 30.11 in 6.0 mi SE 3.5 mph - 0.01 in   Clear
4:53 AM 59.0 °F 57.9 °F 96% 30.10 in 6.0 mi SE 4.6 mph - N/A   Mostly Cloudy
5:07 AM 57.2 °F 57.2 °F 100% 30.11 in 6.0 mi SE 4.6 mph - N/A   Mostly Cloudy
5:26 AM 57.2 °F 57.2 °F 100% 30.11 in 5.0 mi SE 3.5 mph - N/A   Mostly Cloudy
5:53 AM 57.0 °F 57.0 °F 100% 30.11 in 4.0 mi Calm Calm - N/A   Overcast
6:33 AM 57.2 °F 55.4 °F 94% 30.13 in 2.0 mi Calm Calm - N/A   Mostly Cloudy
6:43 AM 55.4 °F 55.4 °F 100% 30.13 in 1.8 mi Calm Calm - N/A   Mostly Cloudy
6:53 AM 55.9 °F 55.9 °F 100% 30.12 in 1.5 mi Calm Calm - N/A   Overcast
7:26 AM 57.2 °F 57.2 °F 100% 30.13 in 0.1 mi Calm Calm - N/A Fog Fog
7:53 AM 57.9 °F 57.9 °F 100% 30.13 in 0.5 mi ESE 3.5 mph - N/A Fog Fog
8:22 AM 59.0 °F 59.0 °F 100% 30.14 in 1.5 mi ESE 3.5 mph - N/A   Overcast
8:36 AM 60.8 °F 60.8 °F 100% 30.14 in 2.5 mi Variable 3.5 mph - N/A   Overcast
8:48 AM 60.8 °F 60.8 °F 100% 30.14 in 5.0 mi SE 4.6 mph - N/A   Mostly Cloudy
8:53 AM 61.0 °F 60.1 °F 97% 30.14 in 6.0 mi ESE 3.5 mph - N/A   Mostly Cloudy
9:53 AM 68.0 °F 63.0 °F 84% 30.15 in 10.0 mi SSE 12.7 mph - N/A   Partly Cloudy
10:22 AM 69.8 °F 62.6 °F 78% 30.15 in 10.0 mi SSE 11.5 mph - N/A   Mostly Cloudy
10:53 AM 72.0 °F 63.0 °F 73% 30.14 in 10.0 mi SSE 13.8 mph - N/A   Mostly Cloudy
11:53 AM 73.0 °F 63.0 °F 71% 30.13 in 10.0 mi SE 16.1 mph 23.0 mph N/A   Mostly Cloudy
12:21 PM 75.2 °F 62.6 °F 65% 30.11 in 10.0 mi South 13.8 mph 24.2 mph N/A   Mostly Cloudy
12:53 PM 77.0 °F 63.0 °F 62% 30.08 in 10.0 mi SSE 12.7 mph - N/A   Mostly Cloudy
1:53 PM 75.0 °F 63.0 °F 66% 30.05 in 10.0 mi SE 11.5 mph - N/A   Scattered Clouds
2:53 PM 73.0 °F 64.0 °F 73% 30.05 in 10.0 mi SE 15.0 mph 20.7 mph N/A   Overcast
3:51 PM 69.8 °F 66.2 °F 88% 30.05 in 1.5 mi SSE 13.8 mph - 0.10 in Rain Heavy Rain
3:53 PM 68.0 °F 66.0 °F 93% 30.05 in 1.2 mi SSE 8.1 mph - 0.11 in Rain Heavy Rain
3:57 PM 69.8 °F 66.2 °F 88% 30.05 in 4.0 mi SSE 6.9 mph - 0.01 in Rain Rain
4:16 PM 69.8 °F 66.2 °F 88% 30.05 in 10.0 mi SE 8.1 mph - 0.01 in   Overcast
4:53 PM 69.1 °F 66.0 °F 90% 30.05 in 10.0 mi SSE 8.1 mph - 0.01 in   Overcast
5:53 PM 68.0 °F 66.0 °F 93% 30.05 in 7.0 mi ESE 8.1 mph - 0.00 in Rain Light Rain
6:06 PM 68.0 °F 66.2 °F 94% 30.06 in 10.0 mi SSE 6.9 mph - 0.00 in   Overcast
6:29 PM 68.0 °F 66.2 °F 94% 30.07 in 10.0 mi SE 9.2 mph 18.4 mph 0.01 in   Overcast
6:53 PM 68.0 °F 64.9 °F 90% 30.06 in 10.0 mi SE 9.2 mph - 0.01 in   Mostly Cloudy
7:03 PM 68.0 °F 64.4 °F 88% 30.07 in 10.0 mi SE 9.2 mph - N/A   Mostly Cloudy
7:41 PM 68.0 °F 64.4 °F 88% 30.08 in 10.0 mi SE 6.9 mph - N/A   Overcast
7:53 PM 68.0 °F 64.9 °F 90% 30.07 in 10.0 mi SE 11.5 mph - N/A   Overcast
8:34 PM 66.2 °F 64.4 °F 94% 30.08 in 10.0 mi SE 9.2 mph - N/A   Overcast
8:53 PM 66.9 °F 64.9 °F 93% 30.08 in 10.0 mi SE 8.1 mph - N/A   Overcast
9:00 PM 66.2 °F 64.4 °F 94% 30.08 in 10.0 mi SE 10.4 mph - N/A   Overcast
9:53 PM 66.9 °F 64.9 °F 93% 30.07 in 10.0 mi SSE 11.5 mph - N/A   Overcast
10:36 PM 66.2 °F 64.4 °F 94% 30.08 in 10.0 mi SSE 8.1 mph - N/A   Overcast
10:53 PM 66.9 °F 64.9 °F 93% 30.08 in 10.0 mi SSE 6.9 mph - N/A   Overcast
11:53 PM 66.9 °F 64.0 °F 90% 30.08 in 10.0 mi SSE 9.2 mph - N/A   Overcast